Precipitable_Water
0.75 0.72 0.66 0.60 0.56 0.58 0.57 0.57 0.62 0.62 0.60 0.63 0.64 0.64 0.58 0.59 0.58 0.58 0.59 0.55 0.53 0.49 0.46 0.47 0.46 0.46 0.47 0.46 0.47 0.47 0.47 0.48 0.47 0.47 0.48 0.47 0.45 0.46 0.45 0.43 0.42 0.46
0.78 0.78 0.75 0.68 0.62 0.60 0.61 0.58 0.62 0.65 0.61 0.64 0.67 0.69 0.67 0.62 0.58 0.64 0.63 0.60 0.54 0.53 0.50 0.47 0.48 0.47 0.46 0.46 0.46 0.45 0.44 0.43 0.41 0.43 0.44 0.45 0.46 0.45 0.42 0.43 0.40 0.43
0.81 0.82 0.82 0.75 0.69 0.65 0.67 0.63 0.65 0.68 0.66 0.68 0.71 0.72 0.72 0.67 0.59 0.65 0.65 0.63 0.61 0.60 0.56 0.54 0.51 0.50 0.49 0.48 0.48 0.48 0.48 0.45 0.45 0.46 0.44 0.42 0.43 0.41 0.41 0.41 0.40 0.38
0.83 0.84 0.84 0.83 0.80 0.77 0.77 0.75 0.68 0.67 0.70 0.71 0.71 0.75 0.76 0.73 0.67 0.68 0.67 0.64 0.64 0.64 0.62 0.61 0.59 0.57 0.54 0.51 0.50 0.50 0.48 0.48 0.47 0.46 0.45 0.45 0.45 0.43 0.41 0.40 0.38 0.36
0.84 0.86 0.87 0.86 0.86 0.88 0.90 0.85 0.78 0.71 0.69 0.72 0.74 0.76 0.78 0.76 0.69 0.71 0.71 0.68 0.69 0.66 0.65 0.63 0.62 0.61 0.59 0.57 0.56 0.55 0.51 0.50 0.47 0.49 0.47 0.45 0.44 0.44 0.44 0.43 0.39 0.39
0.84 0.89 0.89 0.86 0.88 0.89 0.93 0.93 0.88 0.81 0.74 0.72 0.75 0.77 0.79 0.80 0.71 0.71 0.72 0.70 0.70 0.70 0.69 0.66 0.62 0.63 0.61 0.61 0.60 0.59 0.55 0.55 0.54 0.51 0.50 0.47 0.47 0.46 0.44 0.44 0.42 0.44
0.81 0.88 0.91 0.91 0.89 0.93 0.94 0.96 0.94 0.92 0.86 0.80 0.80 0.78 0.78 0.79 0.73 0.73 0.73 0.72 0.71 0.70 0.70 0.68 0.67 0.66 0.63 0.64 0.61 0.62 0.60 0.61 0.57 0.54 0.52 0.53 0.50 0.45 0.44 0.43 0.40 0.40
0.83 0.89 0.90 0.92 0.92 0.94 0.96 0.97 0.94 0.95 0.97 0.91 0.82 0.83 0.80 0.78 0.74 0.74 0.74 0.73 0.70 0.70 0.70 0.69 0.69 0.69 0.67 0.69 0.64 0.64 0.62 0.62 0.57 0.56 0.54 0.54 0.51 0.51 0.52 0.47 0.45 0.43
0.90 0.87 0.87 0.88 0.88 0.90 0.95 0.97 0.92 1.01 1.07 0.99 0.90 0.87 0.86 0.83 0.80 0.77 0.75 0.75 0.72 0.70 0.69 0.70 0.71 0.71 0.71 0.69 0.68 0.68 0.66 0.64 0.61 0.59 0.58 0.56 0.53 0.52 0.51 0.54 0.50 0.50
1.02 0.99 0.94 0.92 0.90 0.90 0.91 0.99 0.96 0.89 0.95 1.02 1.00 0.95 0.92 0.91 0.87 0.82 0.82 0.79 0.76 0.72 0.70 0.70 0.71 0.73 0.74 0.71 0.69 0.69 0.68 0.66 0.64 0.62 0.62 0.62 0.59 0.58 0.55 0.54 0.53 0.51
1.06 1.07 1.04 1.03 0.98 0.98 0.99 1.04 1.04 0.96 0.91 0.93 1.00 0.99 1.00 0.95 0.93 0.89 0.86 0.84 0.81 0.79 0.77 0.74 0.73 0.73 0.76 0.76 0.73 0.73 0.71 0.69 0.67 0.65 0.64 0.63 0.62 0.60 0.58 0.54 0.56 0.53
1.03 1.05 1.03 1.03 1.03 1.01 1.01 1.00 1.02 1.05 1.05 1.03 1.01 0.95 0.90 0.99 0.97 0.93 0.90 0.86 0.86 0.86 0.85 0.83 0.81 0.78 0.76 0.76 0.75 0.75 0.73 0.71 0.69 0.68 0.68 0.66 0.65 0.62 0.60 0.61 0.57 0.55
0.85 0.94 1.01 1.02 1.03 1.06 1.10 1.12 1.10 1.10 1.05 1.06 1.05 1.03 1.02 0.95 0.97 0.95 0.92 0.90 0.89 0.89 0.88 0.88 0.86 0.85 0.81 0.77 0.75 0.76 0.75 0.73 0.69 0.68 0.69 0.69 0.68 0.64 0.62 0.61 0.58 0.56
0.69 0.66 0.66 0.74 0.87 0.99 1.04 1.07 1.09 1.10 1.10 1.12 1.10 1.09 1.06 1.03 1.01 0.96 0.95 0.91 0.89 0.90 0.90 0.89 0.88 0.87 0.85 0.80 0.77 0.76 0.74 0.74 0.75 0.73 0.69 0.69 0.68 0.64 0.62 0.62 0.61 0.57
0.67 0.71 0.74 0.71 0.71 0.74 0.79 0.86 0.96 1.00 0.97 0.94 0.96 1.01 1.05 1.03 1.01 1.00 0.97 0.93 0.92 0.90 0.90 0.90 0.89 0.87 0.86 0.82 0.79 0.78 0.78 0.76 0.75 0.74 0.71 0.68 0.65 0.62 0.63 0.62 0.61 0.59
0.56 0.59 0.63 0.65 0.67 0.68 0.69 0.70 0.68 0.71 0.82 0.92 1.01 1.03 1.01 0.99 0.97 0.98 0.99 0.98 0.95 0.92 0.92 0.90 0.90 0.90 0.91 0.88 0.85 0.82 0.80 0.78 0.76 0.73 0.70 0.67 0.64 0.62 0.62 0.61 0.61 0.60
0.43 0.46 0.52 0.55 0.60 0.65 0.68 0.70 0.70 0.72 0.74 0.77 0.84 0.90 0.92 0.92 0.91 0.91 0.94 0.98 0.99 0.95 0.92 0.92 0.92 0.92 0.93 0.88 0.87 0.84 0.82 0.78 0.75 0.70 0.67 0.65 0.63 0.61 0.59 0.60 0.62 0.62
0.42 0.42 0.41 0.43 0.47 0.52 0.58 0.64 0.68 0.70 0.70 0.71 0.73 0.75 0.79 0.82 0.85 0.87 0.87 0.87 0.90 0.90 0.91 0.92 0.94 0.88 0.86 0.86 0.86 0.84 0.83 0.81 0.77 0.71 0.67 0.65 0.63 0.62 0.61 0.60 0.59 0.59
0.39 0.38 0.38 0.39 0.41 0.42 0.47 0.55 0.59 0.63 0.64 0.63 0.64 0.69 0.74 0.75 0.77 0.81 0.80 0.82 0.84 0.83 0.83 0.84 0.83 0.81 0.79 0.78 0.79 0.79 0.79 0.77 0.74 0.71 0.65 0.63 0.63 0.63 0.60 0.57 0.56 0.53
0.36 0.36 0.37 0.37 0.38 0.38 0.38 0.40 0.47 0.53 0.59 0.62 0.62 0.63 0.65 0.66 0.69 0.69 0.73 0.76 0.79 0.80 0.78 0.80 0.72 0.72 0.72 0.73 0.73 0.72 0.71 0.70 0.68 0.65 0.61 0.60 0.60 0.60 0.59 0.55 0.52 0.50
0.36 0.37 0.37 0.36 0.34 0.34 0.33 0.33 0.35 0.40 0.47 0.53 0.54 0.55 0.57 0.59 0.61 0.62 0.65 0.70 0.76 0.78 0.81 0.77 0.71 0.69 0.70 0.71 0.70 0.68 0.66 0.66 0.64 0.62 0.60 0.59 0.58 0.56 0.53 0.51 0.49 0.48
0.37 0.36 0.35 0.33 0.33 0.34 0.34 0.36 0.38 0.41 0.45 0.51 0.50 0.53 0.55 0.53 0.53 0.56 0.63 0.69 0.71 0.75 0.79 0.69 0.66 0.69 0.68 0.67 0.65 0.63 0.61 0.61 0.61 0.60 0.58 0.57 0.56 0.54 0.53 0.51 0.50 0.49
0.38 0.37 0.36 0.35 0.33 0.32 0.32 0.34 0.36 0.39 0.45 0.51 0.51 0.52 0.52 0.51 0.49 0.51 0.57 0.63 0.69 0.71 0.69 0.58 0.57 0.58 0.58 0.59 0.59 0.57 0.57 0.56 0.58 0.58 0.56 0.55 0.54 0.54 0.53 0.52 0.51 0.51
0.40 0.39 0.36 0.36 0.35 0.33 0.32 0.34 0.37 0.38 0.43 0.51 0.50 0.51 0.51 0.53 0.53 0.53 0.56 0.63 0.67 0.67 0.58 0.51 0.53 0.55 0.54 0.54 0.55 0.54 0.55 0.55 0.55 0.55 0.54 0.54 0.55 0.56 0.54 0.52 0.51 0.49
0.39 0.39 0.38 0.36 0.34 0.34 0.33 0.34 0.35 0.37 0.40 0.48 0.49 0.51 0.54 0.52 0.51 0.52 0.58 0.63 0.63 0.58 0.50 0.53 0.55 0.53 0.51 0.50 0.50 0.50 0.52 0.53 0.51 0.49 0.49 0.50 0.50 0.51 0.52 0.51 0.50 0.51
0.41 0.41 0.41 0.40 0.38 0.38 0.38 0.38 0.38 0.39 0.43 0.47 0.49 0.51 0.53 0.55 0.50 0.55 0.56 0.50 0.52 0.53 0.53 0.53 0.52 0.50 0.48 0.47 0.46 0.46 0.47 0.50 0.50 0.46 0.47 0.51 0.51 0.51 0.51 0.51 0.49 0.49
Wind_Speed
14 14 13 13 12 11 11 10 9 9 9 8 8 8 7 7 7 7 6 6 6 6 6 6 7 7 8 8 9 9 9 9 9 10 10 10 11 11 11 11 12 12
16 15 14 14 13 12 12 11 10 10 10 9 9 8 8 8 7 8 7 7 7 6 6 7 7 7 8 8 8 8 8 9 9 9 9 10 10 10 11 11 11 12
17 16 16 15 14 13 13 13 12 11 11 10 10 10 9 9 8 8 8 8 8 7 7 7 7 7 8 8 8 8 8 9 9 9 9 9 9 9 10 10 11 11
19 18 18 17 16 15 15 14 14 13 12 12 12 11 11 11 10 9 9 9 9 9 9 9 8 8 8 8 8 9 9 9 9 9 9 9 9 9 10 10 10 10
21 20 20 19 18 17 17 16 16 15 15 14 13 13 13 12 12 11 11 10 10 11 10 10 10 10 10 9 9 9 9 10 10 10 10 10 10 10 11 11 10 11
22 21 21 20 20 19 18 18 18 17 17 16 15 15 14 14 13 13 13 12 12 12 11 11 11 11 11 11 11 11 11 11 11 11 11 11 11 11 12 12 12 12
22 22 21 21 21 20 20 20 19 19 18 18 17 17 16 16 15 14 14 14 13 13 13 13 13 13 13 13 13 13 12 12 12 12 12 12 12 12 13 13 13 13
23 22 22 22 22 21 21 21 20 20 20 20 19 19 18 17 16 16 16 15 15 15 15 14 15 14 14 14 14 14 14 14 14 14 14 14 14 14 14 14 14 15
23 23 23 23 22 22 22 22 22 21 21 20 20 20 20 19 18 17 17 17 17 17 16 16 16 16 16 16 16 16 15 16 16 16 15 15 16 15 15 16 16 16
23 23 23 23 23 23 23 23 23 24 23 22 21 21 21 21 21 20 19 19 18 18 18 17 17 17 17 17 17 17 17 17 17 17 17 17 17 17 16 17 17 18
22 22 22 23 24 25 25 24 24 24 24 24 23 23 23 22 23 22 22 21 20 20 19 19 19 19 18 19 19 19 19 19 18 18 18 18 18 18 19 19 19 19
22 22 22 23 24 25 26 26 26 25 25 25 25 25 25 24 24 24 23 23 22 22 21 21 21 20 20 20 20 20 20 20 20 20 20 20 20 20 20 20 20 20
22 24 24 24 24 25 25 26 27 26 26 27 28 28 27 27 26 25 25 25 24 24 24 23 23 23 23 22 21 21 21 22 22 21 21 21 22 22 22 22 22 22
25 26 26 26 25 26 27 27 27 27 28 28 28 28 28 27 27 27 26 26 26 27 26 26 26 26 26 24 23 22 23 23 23 23 23 23 23 23 23 23 23 23
26 26 27 27 27 26 26 27 27 28 28 28 27 27 27 28 28 28 28 29 29 30 30 29 28 28 28 27 25 25 25 25 25 25 24 24 24 24 24 25 25 25
25 25 25 26 26 26 26 26 26 26 27 28 29 29 29 29 29 30 30 31 32 32 33 32 31 30 30 29 27 27 27 27 26 26 26 26 25 25 26 26 27 27
26 26 27 27 27 27 27 27 28 28 29 30 30 30 30 30 31 32 32 34 34 34 34 34 33 32 31 31 30 29 29 28 28 28 28 28 28 28 28 28 28 29
28 28 29 29 29 30 30 30 30 30 31 31 32 32 32 32 32 33 34 35 36 35 34 34 34 32 31 31 31 31 30 30 30 30 30 30 30 30 30 30 30 30
30 30 30 31 31 32 32 32 33 33 33 33 34 34 34 35 35 35 35 36 36 35 35 35 34 33 32 32 32 32 32 32 32 32 31 31 31 31 31 32 32 33
31 31 32 32 32 32 33 34 34 35 35 35 35 35 35 36 36 36 36 36 36 35 35 35 34 33 32 33 33 33 33 33 32 32 32 32 32 32 33 33 33 34
32 32 32 32 32 33 33 34 35 35 35 35 35 35 35 35 36 36 36 36 36 36 35 36 35 33 33 34 34 34 34 33 33 33 33 33 34 34 34 34 34 34
31 32 32 32 33 33 33 34 34 35 35 35 35 35 35 35 35 36 36 36 36 36 35 36 35 34 34 35 34 34 34 33 33 34 34 34 34 35 35 35 35 35
31 32 32 32 32 33 33 33 34 34 35 35 35 35 36 35 35 35 36 36 36 36 36 36 35 35 35 35 34 34 34 33 33 34 34 34 35 35 35 35 35 35
32 32 32 32 32 32 33 33 34 34 34 35 35 36 36 36 35 35 36 36 36 36 36 36 36 35 35 34 34 34 34 33 33 33 34 34 34 34 34 35 35 36
33 32 32 33 33 33 33 33 34 34 34 34 35 35 35 35 35 35 35 35 35 35 36 36 36 35 35 34 34 34 34 33 33 33 33 33 34 34 34 34 34 35
34 34 34 33 34 34 34 34 33 34 34 34 34 34 34 34 34 34 34 34 34 35 35 35 35 34 34 34 34 34 33 33 33 33 33 34 33 33 33 33 34 35
Wind_Direction
242 244 246 245 244 243 240 240 241 240 242 243 244 244 246 250 252 254 259 260 260 260 259 259 258 256 256 258 259 259 259 260 260 261 261 261 262 262 263 263 263 262
240 243 245 245 244 244 242 241 241 241 243 245 245 244 245 250 252 253 257 260 261 260 259 259 259 257 257 258 259 260 260 260 261 262 263 264 264 264 265 265 265 265
239 242 243 244 244 243 242 242 242 242 242 244 245 244 246 250 253 253 256 258 260 261 260 260 260 260 260 259 260 261 262 262 262 263 264 265 266 266 267 267 267 267
239 240 241 243 244 243 243 243 244 244 243 243 244 243 246 251 253 253 255 256 258 261 261 261 261 261 261 261 262 263 264 264 265 266 266 267 268 268 268 269 268 269
240 241 241 242 244 245 246 246 246 246 244 243 243 243 244 250 253 254 256 257 258 260 261 261 262 262 262 263 262 263 265 266 267 267 268 269 270 270 271 271 270 270
242 242 242 242 243 245 247 248 248 248 247 245 244 245 245 248 252 253 255 257 258 259 260 261 262 262 264 264 264 266 266 266 267 268 268 268 270 271 272 273 273 272
242 244 244 244 245 245 246 248 249 250 250 248 246 247 247 249 252 252 253 255 256 257 259 260 261 262 264 264 265 266 266 266 269 270 269 268 270 272 272 273 274 273
245 246 246 246 246 247 247 248 249 251 252 251 249 249 248 249 251 253 253 254 255 256 257 258 259 261 262 263 263 264 265 267 270 270 268 269 272 273 273 273 275 274
247 248 249 249 248 249 249 249 250 251 253 253 251 250 249 249 251 252 253 254 254 255 257 257 258 259 260 261 261 262 264 267 269 269 269 270 273 274 273 273 275 276
246 248 249 250 250 250 251 251 251 251 252 253 254 253 252 251 251 252 252 253 253 255 256 257 258 258 258 259 259 260 264 266 268 268 269 271 272 274 274 275 276 276
246 246 248 250 251 251 252 252 253 252 251 253 254 254 254 254 252 251 251 252 253 254 255 257 258 258 257 258 259 261 263 265 266 267 267 269 271 274 276 276 276 276
246 247 251 254 253 252 252 251 252 253 252 254 255 256 256 256 254 253 252 253 254 255 256 256 258 259 259 259 260 261 263 265 266 267 267 268 271 274 275 276 276 276
249 251 255 258 255 253 253 253 253 254 255 258 259 258 257 256 255 254 253 254 256 257 257 257 258 260 260 260 261 262 263 264 265 266 268 269 271 273 275 275 275 276
254 255 257 258 257 255 256 255 255 256 258 261 261 258 256 255 255 256 256 256 257 257 258 258 258 260 261 261 261 261 263 264 265 266 267 269 271 272 273 274 275 275
257 257 257 258 258 257 257 258 258 258 258 259 259 257 257 257 258 259 258 258 258 259 259 259 259 260 261 260 259 260 262 263 265 266 267 268 270 271 272 273 275 275
258 258 258 258 258 259 259 260 261 260 259 258 258 259 261 261 260 260 259 259 260 261 260 260 260 261 260 258 257 259 261 262 263 265 266 267 269 271 272 273 273 274
259 258 258 259 258 259 260 260 260 261 260 260 260 261 262 262 261 261 261 262 263 263 262 260 261 261 259 257 256 258 260 261 263 264 265 267 268 270 272 273 273 273
260 259 259 259 259 259 260 261 261 261 261 260 260 261 262 262 262 262 263 264 264 263 262 261 261 260 258 256 256 258 260 262 263 265 266 267 269 270 271 272 272 273
261 261 261 261 261 261 261 262 263 263 262 262 262 262 263 263 263 263 264 264 264 262 262 261 261 260 258 256 257 258 260 262 264 265 266 268 269 269 271 271 272 273
263 262 262 263 263 263 262 262 263 263 263 264 264 263 263 264 264 264 264 264 263 262 261 260 259 259 259 258 258 259 261 263 264 265 266 268 268 269 271 272 273 274
263 263 263 264 264 264 264 263 263 263 263 263 263 263 263 263 264 264 264 263 263 262 260 259 259 259 259 259 259 260 261 263 264 265 266 267 268 270 271 272 273 274
263 263 263 264 265 265 264 264 264 264 263 263 263 263 263 263 263 263 263 262 262 260 259 259 259 259 258 259 259 260 261 263 264 266 267 269 270 270 272 273 274 274
263 263 264 264 265 265 265 265 264 264 263 263 263 262 262 262 262 262 262 262 260 259 259 259 259 258 258 258 258 260 262 264 265 267 268 270 271 272 273 274 273 273
263 263 264 264 265 265 265 265 265 264 264 263 263 263 262 262 262 262 262 261 260 259 258 258 258 257 257 257 258 260 263 265 266 268 269 270 271 272 273 274 274 273
262 263 264 265 265 266 266 265 265 265 265 264 263 264 263 263 262 262 261 261 259 258 258 257 257 256 257 258 259 261 263 266 267 268 270 270 271 272 273 274 275 275
263 263 263 265 266 267 267 266 265 265 264 264 263 263 263 263 262 261 260 260 259 258 258 257 256 256 256 258 260 262 264 266 268 269 270 270 270 272 274 275 276 277